{"data":{"norad_id":56072,"intl_designator":"2023-043AC","name":"ONEWEB-0630","alt_names":[],"object_type":"PAYLOAD","status":"ACTIVE","operator":null,"country":"UK","launch_date":"2023-03-26","launch_site_code":"SRILR","launch_vehicle":null,"mission":null,"orbit_class":"UNKNOWN","rcs_meters":null,"size_class":null,"mass_kg":null,"dimensions":null,"purposes":["comms"],"wikipedia_slug":null,"has_3d_model":false,"image_url":null,"decayed_at":null,"tle_current":{"epoch":"2026-05-25T01:16:03.833760Z","epoch_age_seconds":73595,"freshness":"FRESH","line1":"1 56072U 23043AC  26145.05282215 -.00000157  00000+0 -45041-3 0  9996","line2":"2 56072  87.8987 263.8049 0001696  96.3348 263.7975 13.15549494153380","mean_motion":13.15549494,"eccentricity":0.0001696,"inclination_deg":87.8987,"raan_deg":263.8049,"arg_perigee_deg":96.3348,"mean_anomaly_deg":263.7975,"bstar":-0.00045041,"rev_number":15338,"period_min":109.45996380734,"perigee_km":1200.481589638,"apogee_km":1203.0526931228,"semimajor_km":7579.9041413804,"source":"CELESTRAK","updated_at":"2026-05-25T13:38:22.705774Z"}}}